THOR AGENA B DEB, 511

Orbit data source: Space-Track

THOR AGENA B DEB, 511 is space debris in LEO originally from a launch on Sat, 29 Sep 1962 UTC launched from the Air Force Western Test Range (AFWTR). Debris objects in space refer to the collection of defunct objects orbiting the Earth. Examples of debris include non-operational satellites, rocket bodies, and fragments generated from explosions, collisions, or faulty payload assembly.

Loading next visibility...
Identifier
511, 1962-049D
Orbit
LEO
Country
Flag of USUS
Related business
Manufacturer
Unknown
Mission
Spacecraft
Bus & Motor
Unknown
Mass
Unknown
Launch date (UTC)
1962-09-29 (64 years ago)
Launch vehicle
Unknown
Launch site
Air Force Western Test Range (AFWTR)
Object type
Payload
Rocket body
Debris
Shape & HBR
Unknown shape, 0.1 m
Radar Cross Section
Medium (>0.1 m² and <1 m²)

Expand to show TLE details & history
Last TLE update: 13 hours ago

TLE from 13 hours ago
0 THOR AGENA B DEB
1 00511U 62049D   26207.14783699  .00000061  00000-0  61183-4 0  9992
2 00511  80.4294 153.2568 0030497 235.9410 138.6338 13.68570816184913
Epoch: 2026-07-26T03:32Z
TLE epoch observation values (Epoch: 2026-07-26T03:32:53.115Z)
Latitude
14.56835°
Longitude
158.68408°
Altitude
1,023.738 km
Speed
7.333 km/s
True Right ascension
10h 23m 01s
True Declination
14° 29' 16"
Sunlit
Object was in daylight at epoch
Visualization orbit readout
Latitude
Unknown
Longitude
Unknown
Altitude
Unknown
Speed
Unknown
Apparent Right ascension
Unknown
Apparent Declination
Unknown
Sunlit
N/A
Visualization observer readout
Local Sidereal Time
05:34:28
Azimuth
Unknown
Elevation
Unknown
Doppler factor
Unknown
Orbital elements
Apogee altitude
1,024.483 km
Perigee altitude
979.469 km
Semi-major axis
7,380.113 km
Eccentricity
0.00305
Inclination
80.4294°
RAAN
153.2568°
Arg. of periapsis
235.941°
True anomaly
138.86409°
Mean anomaly
138.6338°
Eccentric anomaly
138.74901°
Mean motion
3.42333 °/min
Orbital period
105.16 mins
BSTAR
0.000061183
Loading maneuver chart data...
Computing Atmospheric mass density...
Loading historical data...
Loading historical data...
Loading historical data...
Loading historical data...
Loading historical data...
Loading historical data...
Loading historical data...
Other satellites on launch #49 in the year 1962 (1962-09-29 UTC)

Documentation

Showing up to 5 results
|